Content
SEND FEEDBACK

Daily
Averages
Monthly
Summary
United Kingdom

LEEMING, ENGLAND


Home > Europe > United Kingdom > England
Elevation: 131 feet     Latitude: 54 18N     Longitude: 001 31W

WEATHER
 
SELECT A DAY
Number of Records: 63,729;   Date Range: 8/10/96 - 7/22/14
 
SHARE

PRINT THIS DATA

[ ← Previous Day ]
WEATHER ALMANAC - JANUARY 31, 2013
[ Next Day → ]
[ °C ]   °F
Weather ElementAverageHighLow
Temperature43.4 °F48.2 °F (12:50 pm) (10:50 pm)
Dewpoint35.8 °F43 °F (11:50 pm) (7:00 pm)
Humidity72.7 %100 % (11:50 pm)54 % (11:50 am)
Barometer29.56 in29.71 in (1:50 am)29.44 in (7:50 am)
Wind Speed24.1 mph33.4 mph (11:50 am)
Wind Gust52.9 mph (10:50 am)
Weather ElementAverage
Visibility8.4 mi
Wind DirectionWSW (238.1 °)

Weather ElementTotal
Precipitation---
Heating Degree Days40.9 (Base 65)
Averaged from 31 records on January 31, 2013
WEATHER CONDITIONS BREAKOUT
WIND DIRECTION BREAKOUT
WEATHER BY HOUR - JANUARY 31, 2013
[ °C ]   °F
Local TimeTemperatureDewpointHumidityBarometerVisibilityWind DirectionWind SpeedGust SpeedPrecipitationEventsConditions
1:50 AM44.6 °F33.8 °F66 %29.71 in6.2 miSSW (200°)12.7 mph24.2 mphMostly Cloudy
2:50 AM44.0 °F36.0 °F63 %29.67 in12.0 miSSE (160°)13.8 mphScattered Clouds
2:50 AM44.6 °F35.6 °F71 %29.65 in6.2 miSSE (160°)13.8 mphMostly Cloudy
3:50 AM46.4 °F33.8 °F62 %29.59 in6.2 miSouth (170°)12.7 mph26.5 mphRainLight Rain Showers
4:50 AM42.8 °F37.4 °F81 %29.53 in6.2 miSouth (170°)15.0 mphMostly Cloudy
5:50 AM43.0 °F37.0 °F72 %29.52 in19.0 miSW (220°)19.6 mphScattered Clouds
5:50 AM42.8 °F37.4 °F81 %29.50 in6.2 miSW (220°)19.6 mphScattered Clouds
6:50 AM44.6 °F37.4 °F76 %29.47 in6.2 miSSW (210°)20.7 mphRainLight Rain Showers
7:50 AM44.6 °F35.6 °F71 %29.44 in6.2 miWSW (240°)24.2 mphRainLight Rain Showers
8:50 AM45.0 °F36.0 °F62 %29.46 in19.0 miWSW (240°)31.1 mphRainLight Rain Showers
8:50 AM44.6 °F35.6 °F71 %29.44 in6.2 miWSW (240°)31.1 mph44.9 mphPartly Cloudy
9:50 AM46.4 °F35.6 °F66 %29.44 in6.2 miWSW (250°)29.9 mph42.6 mphPartly Cloudy
10:50 AM46.4 °F35.6 °F66 %29.47 in6.2 miWest (260°)32.2 mph52.9 mphPartly Cloudy
11:50 AM47.0 °F36.0 °F54 %29.50 in16.0 miWest (260°)33.4 mphPartly Cloudy
11:50 AM46.4 °F35.6 °F66 %29.47 in6.2 miWest (260°)33.4 mph47.2 mphPartly Cloudy
12:50 PM48.2 °F35.6 °F62 %29.53 in6.2 miWest (260°)23.0 mph39.1 mphPartly Cloudy
1:50 PM46.4 °F35.6 °F66 %29.56 in6.2 miWest (270°)25.3 mph41.4 mphPartly Cloudy
2:50 PM46.0 °F35.0 °F55 %29.56 in19.0 miWest (270°)23.0 mphScattered Clouds
2:50 PM46.4 °F35.6 °F66 %29.53 in6.2 miWest (270°)23.0 mph39.1 mphPartly Cloudy
3:50 PM44.6 °F35.6 °F71 %29.53 in6.2 miWest (260°)31.1 mph43.7 mphPartly Cloudy
4:50 PM42.8 °F35.6 °F76 %29.59 in6.2 miWSW (250°)24.2 mphPartly Cloudy
5:50 PM44.0 °F37.0 °F67 %29.60 in11.0 miWest (260°)25.3 mphRainRain
5:50 PM44.6 °F37.4 °F76 %29.59 in6.2 miWest (260°)25.3 mph39.1 mph
6:50 PM44.6 °F37.4 °F76 %29.59 in6.2 miWSW (250°)26.5 mph38.0 mph
7:50 PM44.6 °F37.4 °F76 %29.62 in6.2 miWSW (250°)24.2 mph35.7 mph
8:50 PM44.0 °F40.0 °F81 %29.64 in11.0 miWSW (250°)26.5 mph
8:50 PM44.6 °F41.0 °F87 %29.62 in6.2 miWSW (250°)26.5 mph38.0 mph
9:50 PM44.6 °F42.8 °F93 %29.62 in6.2 miWSW (250°)24.2 mph
10:50 PM0.0 °F0.0 °F29.62 in5.6 miWSW (250°)28.8 mph41.4 mphRainRain Showers
11:50 PM43.0 °F43.0 °F100 %29.60 in10.0 miWest (260°)24.2 mphRainRain
11:50 PM42.8 °F42.8 °F100 %29.59 in6.2 miWest (260°)24.2 mph36.8 mph
Hourly data recorded from EGXE, located miles away from Leeming, England







STORIES FROM OUR PARTNERS